TimeEET,TemperatureF,Dew PointF,Humidity,Sea Level PressureIn,VisibilityMPH,Wind Direction,Wind SpeedMPH,Gust SpeedMPH,PrecipitationIn,Events,Conditions,WindDirDegrees,DateUTC
12:50 AM,51.8,48.2,88,30.06,6.2,Calm,Calm,-,N/A,,Partly Cloudy,0,2012-11-18 22:50:00
1:50 AM,51.8,48.2,88,30.06,6.2,Calm,Calm,-,N/A,,Partly Cloudy,0,2012-11-18 23:50:00
2:50 AM,51.8,48.2,88,30.06,6.2,Calm,Calm,-,N/A,,Partly Cloudy,0,2012-11-19 00:50:00
3:50 AM,51.8,48.2,88,30.04,6.2,Calm,Calm,-,N/A,,Partly Cloudy,0,2012-11-19 01:50:00
4:50 AM,51.8,48.2,88,30.04,6.2,Calm,Calm,-,N/A,,Mostly Cloudy,0,2012-11-19 02:50:00
5:20 AM,51.8,48.2,88,30.06,6.2,Calm,Calm,-,N/A,,Partly Cloudy,0,2012-11-19 03:20:00
5:50 AM,51.8,48.2,88,30.06,6.2,Calm,Calm,-,N/A,,Partly Cloudy,0,2012-11-19 03:50:00
6:20 AM,51.8,48.2,88,30.06,6.2,Calm,Calm,-,N/A,,Partly Cloudy,0,2012-11-19 04:20:00
6:50 AM,51.8,48.2,88,30.06,6.2,Calm,Calm,-,N/A,,Scattered Clouds,0,2012-11-19 04:50:00
7:20 AM,51.8,48.2,88,30.06,6.2,Calm,Calm,-,N/A,,Scattered Clouds,0,2012-11-19 05:20:00
7:50 AM,51.8,48.2,88,30.04,6.2,Calm,Calm,-,N/A,,Scattered Clouds,0,2012-11-19 05:50:00
8:20 AM,53.6,50.0,88,30.06,6.2,Calm,Calm,-,N/A,,Scattered Clouds,0,2012-11-19 06:20:00
8:50 AM,57.2,50.0,77,30.06,5.6,Calm,Calm,-,N/A,,Scattered Clouds,0,2012-11-19 06:50:00
9:20 AM,59.0,50.0,72,30.06,5.6,Calm,Calm,-,N/A,,Scattered Clouds,0,2012-11-19 07:20:00
9:50 AM,62.6,50.0,63,30.06,5.6,Calm,Calm,-,N/A,,Scattered Clouds,0,2012-11-19 07:50:00
10:20 AM,64.4,50.0,59,30.06,6.2,Calm,Calm,-,N/A,,Scattered Clouds,0,2012-11-19 08:20:00
10:50 AM,66.2,50.0,56,30.06,6.2,Calm,Calm,-,N/A,,Mostly Cloudy,0,2012-11-19 08:50:00
11:20 AM,66.2,48.2,52,30.06,6.2,Calm,Calm,-,N/A,,Mostly Cloudy,0,2012-11-19 09:20:00
11:50 AM,66.2,48.2,52,30.04,6.2,Calm,Calm,-,N/A,,Mostly Cloudy,0,2012-11-19 09:50:00
12:20 PM,66.2,50.0,56,30.04,6.2,East,5.8,-,N/A,,Mostly Cloudy,80,2012-11-19 10:20:00
12:50 PM,64.4,50.0,59,30.04,6.2,East,6.9,-,N/A,,Mostly Cloudy,90,2012-11-19 10:50:00
1:20 PM,66.2,50.0,56,30.01,6.2,East,8.1,-,N/A,,Mostly Cloudy,80,2012-11-19 11:20:00
1:50 PM,66.2,50.0,56,30.01,6.2,East,8.1,-,N/A,,Mostly Cloudy,90,2012-11-19 11:50:00
2:20 PM,66.2,50.0,56,30.01,6.2,East,9.2,-,N/A,,Mostly Cloudy,90,2012-11-19 12:20:00
2:50 PM,64.4,50.0,59,30.01,6.2,ESE,8.1,-,N/A,,Mostly Cloudy,110,2012-11-19 12:50:00
3:20 PM,64.4,50.0,59,30.01,6.2,ESE,8.1,-,N/A,,Mostly Cloudy,110,2012-11-19 13:20:00
3:50 PM,64.4,50.0,59,30.01,6.2,ESE,6.9,-,N/A,,Overcast,110,2012-11-19 13:50:00
4:20 PM,64.4,51.8,64,30.01,6.2,ENE,5.8,-,N/A,,Overcast,70,2012-11-19 14:20:00
4:50 PM,64.4,51.8,64,30.01,6.2,ENE,5.8,-,N/A,,Overcast,70,2012-11-19 14:50:00
5:20 PM,62.6,51.8,68,30.01,6.2,ENE,5.8,-,N/A,,Overcast,60,2012-11-19 15:20:00
5:50 PM,62.6,51.8,68,30.01,6.2,ENE,5.8,-,N/A,,Overcast,60,2012-11-19 15:50:00
6:20 PM,62.6,51.8,68,30.01,6.2,ENE,4.6,-,N/A,,Overcast,70,2012-11-19 16:20:00
6:50 PM,62.6,51.8,68,30.01,6.2,Variable,3.5,-,N/A,,Overcast,0,2012-11-19 16:50:00
7:20 PM,60.8,51.8,72,30.01,5.0,Variable,3.5,-,N/A,Rain,Light Rain,0,2012-11-19 17:20:00
7:50 PM,59.0,53.6,82,30.04,4.3,Calm,Calm,-,N/A,Rain,Rain,0,2012-11-19 17:50:00
8:20 PM,59.0,55.4,88,30.01,5.0,North,5.8,-,N/A,Rain,Light Rain,350,2012-11-19 18:20:00
8:50 PM,59.0,55.4,88,30.01,6.2,Calm,Calm,-,N/A,,Mostly Cloudy,0,2012-11-19 18:50:00
9:20 PM,59.0,55.4,88,30.01,6.2,Calm,Calm,-,N/A,,Mostly Cloudy,0,2012-11-19 19:20:00
9:50 PM,59.0,55.4,88,30.01,6.2,Variable,3.5,-,N/A,,Mostly Cloudy,0,2012-11-19 19:50:00
10:20 PM,59.0,55.4,88,30.01,6.2,Calm,Calm,-,N/A,,Mostly Cloudy,0,2012-11-19 20:20:00
10:50 PM,59.0,55.4,88,30.01,6.2,Calm,Calm,-,N/A,,Mostly Cloudy,0,2012-11-19 20:50:00
11:50 PM,59.0,55.4,88,30.01,6.2,Variable,3.5,-,N/A,,Mostly Cloudy,0,2012-11-19 21:50:00